Tracking 29033 objects as of 22-Jun-2024
HD Live streaming from Space Station
objects crossing your sky now

STARLINK-31431

Track STARLINK-31431 now!
10-day predictions
STARLINK-31431 is classified as:


NORAD ID: 59002
Int'l Code: 2024-036E
Perigee: 488.0 km
Apogee: 489.7 km
Inclination: 53.2 °
Period: 94.2 minutes
Semi major axis: 6859 km
RCS: Unknown
Launch date: February 23, 2024
Source: United States (US)
Launch site: AIR FORCE WESTERN TEST RANGE (AFWTR)
Your satellite tracking list
Your tracking list is empty




NASA's NSSDC Master Catalog

Two Line Element Set (TLE):
1 59002U 24036E   24173.95929702  .00001687  00000-0  73565-4 0  9993
2 59002  53.1598 104.4068 0001231  96.6256 263.4884 15.28013804 19527
Source of the keplerian elements: AFSPC